星链-6368 (STARLINK-6368 )

导读

STARLINK-6368是美国太空探索技术公司(SpaceX)推出的星链(Starlink)星座卫星,于2023年7月7日发射升空。星链旨在构建全球卫星互联网通信系统,该卫星入轨后,将服务于全球低延迟宽带网络覆盖,进一步推进星链星座组网建设,拓展商业航天的全球互联网服务能力。

基本信息
目录编号:
57234
目录名称:
STARLINK-6368
国际标识:
2023-094S
轨道中心:
EARTH
卫星名称:
星链-6368
卫星全名:
星链-6368 (STARLINK-6368 )
卫星状态:
在轨 (已飞行1163 天)
发射日期:
2023-07-07 UTC
国别 :
美国 (US)
星等 :
--
该卫星已列入 空间交会检测服务 Space Conjunction Data Service (SCDS) ,当前飞行风险评估等级: 高风险
轨道信息
数据来源 国际轨道数据
星历时间: 2026-09-11T19:33:15+0800
1天前
查看轨道信息
半长轴: 6861.211km
偏心率: 0.0001524
轨道倾角: 43.003°
近地点辐角 252.208°
升交点赤经 61.137°
平近点角 107.860°
近地点: 482.028km
远地点: 484.12km
周期: 94.267分钟
每日圈数: 15.275717
详细信息
固有亮度:
5
最大亮度:
2.4
卫星平台:
Starlink v1.5
覆盖范围:
全球
运营商:
太空探索技术公司
运营商所在国:
美国
制造商(研发单位):
太空探索技术公司
制造商所在国:
美国
使用方式:
暂无
卫星简介
星链(Starlink)计划是由太空探索技术公司(SpaceX)提出的一个巨型低轨卫星互联网星座项目,计划在2019年至2024年间在太空搭建由约1.2万颗卫星组成的“星链”网络,其中1584颗将部署在地球上空550千米处的近地轨道,并从2020年开始工作。该卫星仍在工作。
2D轨道图
3D轨道图
轨道高度分析图
轨道倾角分析图
轨道综合分析图
查看轨道综合分析图
与全量物体交会距离演化趋势
与全量物体交会风险概率演化趋势